This demonstration page uses our WeatherBlox Daily Observations layout. Learn more.

Hourly Observations for June 16, 2018

Temp ( °F °C ) Dew Point ( °F °C ) Humidity (%) Winds ( mph kmh ) Pressure ( in mb ) Visibility ( mi km ) Precip ( " mm )
12:15 am 00:15 Clear with Thunderstorms 84 28.8 59 15.2 44 44 S 21 33 29.59 1002 10 16.09344 0 0
12:35 am 00:35 Clear with Nearby Thunderstorms 84 28.7 59 15 43 43 S 22 35 29.56 1001 10 16.09344 0 0
12:55 am 00:55 Clear with Nearby Thunderstorms 84 28.7 59 15.1 44 44 S 21 33 29.56 1001 10 16.09344 0 0
1:15 am 01:15 Partly Cloudy 83 28.4 59 15.2 45 45 S 20 31 29.59 1002 10 16.09344 0 0
1:35 am 01:35 Partly Cloudy 82 27.7 60 15.5 47 47 SSE 17 28 29.62 1003 10 16.09344 0 0
1:55 am 01:55 Clear with Nearby Thunderstorms 82 27.9 60 15.6 47 47 S 20 31 29.56 1001 10 16.09344 0 0
2:15 am 02:15 Clear 82 27.8 60 15.8 48 48 S 18 30 29.56 1001 10 16.09344 0 0
2:35 am 02:35 Clear 82 28 58 14.7 44 44 E 9 15 29.53 1000 10 16.09344 0 0
2:55 am 02:55 Clear 82 27.9 56 13.6 41 41 SW 12 19 29.56 1001 10 16.09344 0 0
3:15 am 03:15 Clear 80 26.9 61 16.1 52 52 S 17 28 29.56 1001 10 16.09344 0 0
3:35 am 03:35 Clear 80 26.6 60 15.6 51 51 SSW 17 28 29.56 1001 10 16.09344 0 0
3:55 am 03:55 Clear 81 27.2 60 15.7 49 49 SSW 21 33 29.56 1001 10 16.09344 0 0
4:15 am 04:15 Clear 80 26.4 60 15.8 52 52 S 14 22 29.59 1002 10 16.09344 0 0
4:35 am 04:35 Clear 79 25.9 60 15.8 54 54 S 14 22 29.59 1002 10 16.09344 0 0
4:55 am 04:55 Clear 78 25.3 60 15.8 56 56 S 13 20 29.59 1002 10 16.09344 0 0
5:15 am 05:15 Clear 77 25.1 60 15.6 56 56 S 14 22 29.59 1002 10 16.09344 0 0
5:35 am 05:35 Clear 75 24.1 61 16 61 61 S 10 17 29.65 1004 10 16.09344 0 0
5:55 am 05:55 Clear 75 24 61 16.2 62 62 S 12 19 29.65 1004 10 16.09344 0 0
6:15 am 06:15 Sunny 74 23.5 62 16.6 65 65 S 9 15 29.65 1004 10 16.09344 0 0
6:35 am 06:35 Sunny 74 23.1 62 16.8 68 68 S 9 15 29.65 1004 10 16.09344 0 0
6:55 am 06:55 Sunny 73 23 63 17 69 69 S 12 19 29.65 1004 10 16.09344 0 0
7:15 am 07:15 Sunny 74 23.4 63 17.2 68 68 S 13 20 29.65 1004 10 16.09344 0 0
7:35 am 07:35 Sunny 75 24 64 17.5 67 67 SSE 13 20 29.65 1004 10 16.09344 0 0
7:55 am 07:55 Sunny 76 24.5 64 17.6 66 66 SSE 14 22 29.62 1003 10 16.09344 0 0
8:15 am 08:15 Sunny 77 25.1 64 17.8 64 64 S 17 28 29.62 1003 10 16.09344 0 0
8:35 am 08:35 Sunny 78 25.7 64 17.9 62 62 S 17 28 29.62 1003 10 16.09344 0 0
8:55 am 08:55 Sunny 79 26.3 64 18 60 60 S 20 31 29.62 1003 10 16.09344 0 0
9:15 am 09:15 Sunny 81 27 64 17.7 57 57 S 17 28 29.62 1003 10 16.09344 0 0
9:35 am 09:35 Sunny 82 27.7 64 17.6 54 54 S 17 28 29.62 1003 10 16.09344 0 0
9:55 am 09:55 Partly Cloudy 83 28.1 64 17.6 53 53 S 16 26 29.59 1002 10 16.09344 0 0
10:15 am 10:15 Sunny 84 28.7 64 17.7 51 51 S 23 37 29.59 1002 10 16.09344 0 0
10:35 am 10:35 Sunny 85 29.5 64 17.6 49 49 S 21 33 29.59 1002 10 16.09344 0 0
10:55 am 10:55 Sunny 86 30.1 64 17.8 48 48 S 18 30 29.59 1002 10 16.09344 0 0
11:15 am 11:15 Sunny 87 30.5 64 17.5 46 46 S 24 39 29.59 1002 10 16.09344 0 0
11:35 am 11:35 Sunny 89 31.6 63 17.3 42 42 S 26 43 29.59 1002 10 16.09344 0 0
11:55 am 11:55 Sunny 90 32 64 17.5 42 42 S 21 33 29.56 1001 10 16.09344 0 0
12:15 pm 12:15 Sunny 91 32.6 64 17.5 41 41 S 24 39 29.56 1001 10 16.09344 0 0
12:35 pm 12:35 Sunny 92 33.1 63 17.4 39 39 S 21 33 29.56 1001 10 16.09344 0 0
12:55 pm 12:55 Sunny 92 33.3 64 17.7 39 39 S 22 35 29.56 1001 10 16.09344 0 0
1:15 pm 13:15 Sunny 92 33.6 63 17.1 37 37 S 23 37 29.56 1001 10 16.09344 0 0
1:35 pm 13:35 Sunny 92 33.6 64 17.6 38 38 S 21 33 29.56 1001 10 16.09344 0 0
1:55 pm 13:55 Sunny 92 33.1 63 17.2 39 39 S 24 39 29.56 1001 10 16.09344 0 0
2:15 pm 14:15 Sunny 92 33.6 63 17.2 38 38 S 22 35 29.56 1001 10 16.09344 0 0
2:35 pm 14:35 Sunny 92 33.3 61 16.2 36 36 SSW 25 41 29.56 1001 10 16.09344 0 0
2:55 pm 14:55 Sunny 92 33.5 61 16.2 35 35 S 25 41 29.56 1001 10 16.09344 0 0
3:15 pm 15:15 Sunny 92 33.1 63 17.1 38 38 S 28 44 29.56 1001 10 16.09344 0 0
3:35 pm 15:35 Sunny 91 32.5 62 16.5 38 38 S 23 37 29.56 1001 10 16.09344 0 0
3:55 pm 15:55 Sunny 90 32.1 62 16.6 39 39 S 21 33 29.56 1001 10 16.09344 0 0
4:15 pm 16:15 Sunny 89 31.6 63 17 42 42 S 18 30 29.59 1002 10 16.09344 0 0
4:35 pm 16:35 Sunny 91 32.6 61 16.3 38 38 S 22 35 29.56 1001 10 16.09344 0 0
4:55 pm 16:55 Sunny 89 31.6 63 17 42 42 S 17 28 29.59 1002 10 16.09344 0 0
5:15 pm 17:15 Sunny 89 31.6 64 17.5 43 43 S 20 31 29.59 1002 10 16.09344 0 0
5:35 pm 17:35 Sunny 90 32.2 65 18.2 43 43 SSE 20 31 29.53 1000 10 16.09344 0 0
5:55 pm 17:55 Sunny 90 32.3 62 16.6 39 39 S 24 39 29.56 1001 10 16.09344 0 0
6:15 pm 18:15 Sunny 89 31.8 60 15.6 38 38 S 23 37 29.59 1002 10 16.09344 0 0
6:35 pm 18:35 Sunny 89 31.6 61 16.1 39 39 S 18 30 29.59 1002 10 16.09344 0 0
6:55 pm 18:55 Sunny 89 31.5 63 17.2 42 42 S 23 37 29.59 1002 10 16.09344 0 0
7:15 pm 19:15 Sunny 89 31.4 63 17 42 42 S 20 31 29.59 1002 10 16.09344 0 0
7:35 pm 19:35 Sunny 87 30.6 63 17.2 45 45 S 20 31 29.59 1002 10 16.09344 0 0
7:55 pm 19:55 Sunny 87 30.5 64 17.7 46 46 S 16 26 29.59 1002 10 16.09344 0 0
8:15 pm 20:15 Sunny 86 30 64 17.5 47 47 SSE 16 26 29.59 1002 10 16.09344 0 0
8:35 pm 20:35 Sunny 85 29.6 63 17.4 48 48 SSE 16 26 29.59 1002 10 16.09344 0 0
8:55 pm 20:55 Sunny 84 29.1 64 17.5 50 50 SSE 16 26 29.59 1002 10 16.09344 0 0
9:15 pm 21:15 Clear 83 28.3 64 17.7 53 53 SSE 15 24 29.59 1002 10 16.09344 0 0
9:35 pm 21:35 Clear 83 28.1 64 17.6 53 53 SSE 15 24 29.59 1002 10 16.09344 0 0
9:55 pm 21:55 Clear 82 28 64 17.5 53 53 SSE 14 22 29.62 1003 10 16.09344 0 0
10:15 pm 22:15 Clear 82 27.9 63 17.2 52 52 SSE 16 26 29.65 1004 10 16.09344 0 0
10:35 pm 22:35 Clear 82 27.9 62 16.7 51 51 SSE 18 30 29.65 1004 10 16.09344 0 0
10:55 pm 22:55 Clear 82 28 62 16.6 50 50 SSE 17 28 29.65 1004 10 16.09344 0 0
11:15 pm 23:15 Clear 82 27.8 62 16.6 51 51 SSE 20 31 29.65 1004 10 16.09344 0 0
11:35 pm 23:35 Clear 82 27.5 63 17 53 53 S 17 28 29.65 1004 10 16.09344 0 0
11:55 pm 23:55 Clear 81 27.4 64 17.6 55 55 SSE 16 26 29.65 1004 10 16.09344 0 0

Powered by AerisWeather